ELEKTRON 1 DEB *, 18589

Orbit data source: Space-Track

ELEKTRON 1 DEB *, 18589 is space debris in LEO originally from a launch on Thu, 30 Jan 1964 UTC launched from the Tyuratam Missile And Space Complex (TTMTR). Debris objects in space refer to the collection of defunct objects orbiting the Earth. Examples of debris include non-operational satellites, rocket bodies, and fragments generated from explosions, collisions, or faulty payload assembly.

Loading next visibility...
Identifier
18589, 1964-006N
Orbit
LEO
Country
Flag of CISCIS
Related business
Manufacturer
Unknown
Mission
Spacecraft
Bus & Motor
Unknown
Mass
Unknown
Launch date (UTC)
1964-01-30 (63 years ago)
Launch vehicle
Unknown
Launch site
Tyuratam Missile And Space Complex (TTMTR)
Object type
Payload
Rocket body
Debris
Shape & HBR
Unknown shape, 0.1 m
Radar Cross Section
Medium (>0.1 m² and <1 m²)

Expand to show TLE details & history
Last TLE update: 23 hours ago

TLE from 23 hours ago
0 ELEKTRON 1 DEB *
1 18589U 64006N   26219.47054392 -.00000749  00000-0 -33546-2 0  9996
2 18589  58.9363 234.8915 2042848  63.8000 315.8254  9.97433370444100
Epoch: 2026-08-07T11:17Z
TLE epoch observation values (Epoch: 2026-08-07T11:17:34.994Z)
Latitude
-0.00005°
Longitude
109.49989°
Altitude
1,633.784 km
Speed
7.47 km/s
True Right ascension
15h 39m 33s
True Declination
0° 00' 00"
Sunlit
Object was in daylight at epoch
Visualization orbit readout
Latitude
Unknown
Longitude
Unknown
Altitude
Unknown
Speed
Unknown
Apparent Right ascension
Unknown
Apparent Declination
Unknown
Sunlit
N/A
Visualization observer readout
Local Sidereal Time
00:25:00
Azimuth
Unknown
Elevation
Unknown
Doppler factor
Unknown
Orbital elements
Apogee altitude
4,599.715 km
Perigee altitude
875.333 km
Semi-major axis
9,115.661 km
Eccentricity
0.20428
Inclination
58.9363°
RAAN
234.8915°
Arg. of periapsis
63.8°
True anomaly
296.2892°
Mean anomaly
315.8254°
Eccentric anomaly
306.405°
Mean motion
2.4938 °/min
Orbital period
144.36 mins
BSTAR
-0.0033546
Loading maneuver chart data...
Computing Atmospheric mass density...

Documentation

Showing up to 5 results
|